Weather History for Tulsa, OK

Change the Weather History Date:

Sunday, July 29, 2012

  Actual Average Record
Temperature  
Mean Temperature 97 °F 84 °F  
Max Temperature 108 °F 94 °F 110 °F (1986)
Min Temperature 86 °F 73 °F 60 °F (1969)
Cooling Degree Days 32 19  
Month to date cooling degree days 680 518  
Year to date cooling degree days 1638 1131  
Since 1 June cooling degree days 1162 897  
Growing Degree Days 47 (Base 50)    
Moisture  
Dew Point 58 °F    
Average Humidity 29    
Maximum Humidity 40    
Minimum Humidity 17    
Precipitation  
Precipitation 0.00 in 0.09 in 1.64 in (2000)
Month to date precipitation 1.38 3.17  
Year to date precipitation 18.93 24.39  
Sea Level Pressure  
Sea Level Pressure 29.90 in    
Wind  
Wind Speed 10 mph (SSW)    
Max Wind Speed 20 mph    
Max Gust Speed 24 mph    
Visibility 10 miles    
Events      
T = Trace of Precipitation, MM = Missing Value Source: NWS Daily Summary

Daily Weather History Graph

Daily Weather History Graph

Search for Another Location

Airport:

Trip Planner

Search our weather history database for the weather conditions in past years. The results will help you decide how hot, cold, wet, or windy it might be!

Date:

Astronomy

Jul. 29, 2012 Rise Set
Actual Time 6:28 AM CDT 8:30 PM CDT
Civil Twilight 5:59 AM CDT 8:59 PM CDT
Nautical Twilight 5:25 AM CDT 9:34 PM CDT
Astronomical Twilight 4:47 AM CDT 10:11 PM CDT
Moon 5:36 PM CDT (7/29) 2:45 AM CDT (7/29)
Length of Visible Light 14h 59m
Length of Day
14h 02m
Waxing Gibbous, 85% of the Moon is Illuminated
Jul 29
Waxing Gibbous
Aug 1
Full
Aug 9
Last Quarter
Aug 17
New
Aug 24
First Quarter

Hourly Weather History & Observations

Time (CDT) Temp. Heat Index Dew Point Humidity Pressure Visibility Wind Dir Wind Speed Gust Speed Precip Events Conditions
12:53 AM 91.0 °F 90.2 °F 59.0 °F 34% 29.94 in 10.0 mi South 8.1 mph - N/A   Clear
1:53 AM 88.0 °F 87.6 °F 60.1 °F 39% 29.94 in 10.0 mi South 8.1 mph - N/A   Clear
2:53 AM 87.1 °F 87.0 °F 61.0 °F 41% 29.94 in 10.0 mi South 6.9 mph - N/A   Clear
3:53 AM 89.1 °F 88.8 °F 60.1 °F 38% 29.94 in 10.0 mi SSW 6.9 mph - N/A   Clear
4:53 AM 88.0 °F 87.9 °F 61.0 °F 40% 29.93 in 10.0 mi SW 9.2 mph - N/A   Clear
5:53 AM 89.1 °F 89.0 °F 61.0 °F 39% 29.94 in 10.0 mi SW 9.2 mph - N/A   Clear
6:53 AM 89.1 °F 89.0 °F 61.0 °F 39% 29.95 in 10.0 mi WSW 11.5 mph - N/A   Clear
7:53 AM 91.0 °F 90.9 °F 61.0 °F 36% 29.97 in 10.0 mi WSW 13.8 mph 18.4 mph N/A   Clear
8:53 AM 93.0 °F 93.0 °F 61.0 °F 34% 29.97 in 10.0 mi SW 10.4 mph - N/A   Clear
9:53 AM 98.1 °F 98.1 °F 60.1 °F 28% 29.96 in 10.0 mi SSW 10.4 mph 19.6 mph N/A   Clear
10:53 AM 100.9 °F 101.0 °F 59.0 °F 25% 29.96 in 10.0 mi SW 11.5 mph 18.4 mph N/A   Clear
11:53 AM 104.0 °F 105.3 °F 60.1 °F 24% 29.94 in 10.0 mi SSW 13.8 mph 21.9 mph N/A   Clear
12:53 PM 102.9 °F 103.0 °F 59.0 °F 23% 29.92 in 10.0 mi SSW 10.4 mph 16.1 mph N/A   Scattered Clouds
1:53 PM 105.1 °F 105.0 °F 57.9 °F 21% 29.90 in 10.0 mi SW 9.2 mph 17.3 mph N/A   Mostly Cloudy
2:53 PM 107.1 °F 107.4 °F 57.9 °F 20% 29.88 in 10.0 mi West 10.4 mph 17.3 mph N/A   Partly Cloudy
3:53 PM 106.0 °F 105.8 °F 57.0 °F 20% 29.87 in 10.0 mi Variable 4.6 mph - N/A   Partly Cloudy
4:53 PM 107.1 °F 106.7 °F 57.0 °F 19% 29.85 in 10.0 mi SSW 6.9 mph 18.4 mph N/A   Partly Cloudy
5:53 PM 107.1 °F 106.7 °F 55.9 °F 19% 29.83 in 10.0 mi South 12.7 mph - N/A   Partly Cloudy
6:53 PM 105.1 °F 103.3 °F 54.0 °F 18% 29.82 in 10.0 mi South 12.7 mph - N/A   Clear
7:53 PM 104.0 °F - 51.1 °F 17% 29.82 in 10.0 mi South 12.7 mph - N/A   Clear
8:53 PM 100.0 °F - 52.0 °F 20% 29.82 in 10.0 mi South 8.1 mph - N/A   Clear
9:53 PM 98.1 °F 95.7 °F 53.1 °F 22% 29.84 in 10.0 mi South 10.4 mph - N/A   Clear
10:53 PM 96.8 °F 95.1 °F 55.4 °F 25% 29.87 in 10.0 mi SSW 12.7 mph 21.9 mph N/A   Clear
11:53 PM 95.0 °F 93.7 °F 57.0 °F 28% 29.84 in 10.0 mi SSW 10.4 mph - N/A   Clear